#timestamp,LO_Frequency,Hit,StdDev 
1681624815.3,286047000.9,N
1681624835.2,286047001.0,N
1681624855.0,286047001.0,N
1681624855.9,286047001.0,N
1681624875.8,286047000.5,N
1681624895.6,286047000.5,N
1681624915.4,286047000.6,N
1681624935.3,286047000.7,N
1681624955.1,286047002.7,N
1681624975.8,286047002.8,N
1681624995.7,286047000.3,N
1681625015.5,286047000.8,N
1681625035.3,286047000.3,N
1681625055.2,286047001.0,N
1681625075.0,286046998.5,N
1681625075.9,286046998.5,N
1681625095.8,286046998.6,N
1681625115.6,286047001.1,N
1681625135.4,286047000.5,N
1681625155.3,286046998.9,N
1681625175.1,286047000.7,N
1681625195.9,286047000.3,N
1681625215.7,286047001.0,N
1681625235.5,286047000.4,N
1681625255.4,286047000.3,N
1681625275.2,286046999.8,N
1681625295.1,286047000.5,N
1681625296.0,286047000.5,N
1681625315.8,286047001.1,N
1681625335.6,286046998.7,N
1681625355.5,286046996.6,Y
1681625375.3,286046997.4,P
1681625395.2,286046997.7,N
1681625415.9,286046996.8,N
1681625435.7,286046996.6,N
1681625455.6,286046997.3,N
1681625475.4,286046996.6,N
1681625495.2,286046996.6,N
1681625515.1,286046998.5,N
1681625516.0,286046998.5,N
1681625535.8,286047001.2,N
1681625555.7,286046998.5,N
1681625575.5,286046999.4,N
1681625595.3,286046998.2,N
1681625615.2,286046998.7,N
1681625635.0,286046998.1,N
1681625635.9,286046998.1,N
1681625655.8,286046998.3,N
1681625675.6,286046999.6,N
1681625695.4,286046999.1,N
1681625715.3,286046999.0,N
1681625735.1,286046999.4,N
1681625755.9,286046999.4,N
1681625775.7,286046997.4,N
1681625795.5,286046996.9,N
1681625815.4,286046997.0,N
1681625835.2,286046996.7,N
1681625855.0,286046996.7,N
1681625856.0,286046996.7,N
1681625875.8,286046996.5,N
1681625895.6,286046998.7,N
1681625915.5,286046998.2,N
1681625935.3,286046999.4,N
1681625955.1,286046999.0,N
1681625975.9,286047000.7,N
1681625995.7,286046999.2,N
1681626015.6,286046996.5,N
1681626035.4,286046999.0,N
1681626055.2,286046998.9,N
1681626075.1,286046996.7,N
1681626076.0,286046996.7,N
1681626095.8,286046997.1,N
1681626115.6,286046997.7,N
1681626135.5,286046997.8,N
1681626155.3,286046997.5,N
1681626175.2,286046997.4,N
1681626195.9,286046997.6,N
1681626215.7,286046997.4,N
1681626235.6,286046996.7,N
1681626255.4,286046996.8,N
1681626275.2,286046997.4,N
1681626295.1,286046996.7,N
1681626296.0,286046996.7,Y
1681626315.8,286047000.1,P
1681626335.7,286047002.3,N
1681626355.5,286047002.7,N
1681626375.3,286046999.7,N
1681626395.2,286047002.2,N
1681626415.0,286047002.7,N
1681626415.9,286047002.7,N
1681626435.7,286047002.2,N
1681626455.6,286047002.2,N
1681626475.4,286047004.4,N
1681626495.3,286047004.4,N
1681626515.1,286047002.4,N
1681626516.0,286047002.4,N
1681626535.8,286047004.2,N
1681626555.7,286047004.1,N
1681626575.5,286047006.0,Y
1681626595.3,286047000.2,P
1681626615.2,286046999.8,N
1681626635.0,286047001.9,N
1681626635.9,286047001.9,N
1681626655.8,286047002.4,N
1681626675.6,286047002.8,N
1681626695.4,286047002.3,N
1681626715.3,286047002.1,N
1681626735.1,286047002.2,N
1681626755.8,286047002.1,N
1681626775.7,286047002.0,N
1681626795.5,286047002.2,N
1681626815.4,286047002.1,N
1681626835.2,286046999.8,N
1681626855.0,286046999.9,N
1681626855.9,286046999.9,N
1681626875.8,286047000.2,N
1681626895.6,286047002.1,N
1681626915.5,286047002.1,N
1681626935.3,286047004.4,Y
1681626955.1,286047002.7,P
1681626975.9,286047000.2,N
1681626995.7,286047000.1,N
1681627015.5,286047000.4,N
1681627035.4,286047000.8,N
1681627055.2,286047000.5,N
1681627075.1,286047002.4,N
1681627076.0,286047002.4,N
1681627095.8,286047002.2,N
1681627115.6,286047002.5,N
1681627135.5,286047002.5,N
1681627155.3,286047002.8,N
1681627175.1,286047000.3,N
1681627195.9,286047000.1,N
1681627215.7,286047002.6,N
1681627235.6,286047002.3,N
1681627255.4,286047001.6,N
1681627275.2,286047002.4,N
1681627295.1,286046999.7,N
1681627296.0,286046999.7,N
1681627315.8,286047002.8,N
1681627335.6,286047001.3,N
1681627355.5,286047001.9,N
1681627375.3,286047001.5,N
1681627395.2,286047001.4,N
1681627415.9,286047000.1,N
1681627435.7,286047002.8,N
1681627455.6,286047002.6,N
1681627475.4,286047002.1,N
1681627495.2,286047002.3,N
1681627515.1,286047002.2,N
1681627516.0,286047002.2,N
1681627535.8,286047004.0,Y
1681627555.7,286047000.1,P
1681627575.5,286047000.8,N
1681627595.3,286047002.7,P
1681627615.2,286047002.6,N
1681627635.0,286047001.9,N
1681627635.9,286047001.9,N
1681627655.8,286047004.1,Y
1681627675.6,286047002.2,P
1681627695.4,286047002.0,P
1681627715.3,286047000.0,N
1681627735.1,286046999.7,N
1681627755.8,286047000.9,N
1681627775.7,286046998.1,N
1681627795.5,286047000.6,N
1681627815.3,286047000.5,N
1681627835.2,286047000.2,N
1681627855.0,286047000.6,N
1681627855.9,286047000.6,N
1681627875.8,286046999.7,N
1681627895.6,286047002.1,N
1681627915.4,286047002.3,N
1681627935.3,286047000.6,N
1681627955.1,286047000.1,N
1681627975.9,286047002.6,N
1681627995.7,286047002.6,N
1681628015.5,286046999.7,N
1681628035.4,286047002.4,N
1681628055.2,286047002.7,N
1681628075.0,286047002.5,N
1681628075.9,286047002.5,N
1681628095.8,286047000.3,N
1681628115.6,286047000.5,N
1681628135.5,286047001.1,N
1681628155.3,286046998.5,N
1681628175.1,286047000.7,N
1681628195.9,286047001.2,N
1681628215.7,286047001.2,N
1681628235.5,286046998.2,N
1681628255.4,286047000.5,N
1681628275.2,286047000.5,N
1681628295.1,286047000.7,N
1681628296.0,286047000.7,N
1681628315.8,286047000.0,N
1681628335.6,286046999.8,N
1681628355.5,286047002.3,N
1681628375.3,286046999.9,N
1681628395.1,286047000.5,N
